Total_Precipitation_Accumulation
0.19 0.10 0.13 0.13 0.11 0.11 0.10 0.12 0.14 0.15 0.14 0.13 0.12 0.10 0.10 0.09 0.09 0.07 0.07 0.08 0.11 0.17 0.22 0.24 0.25 0.29 0.32 0.25 0.17 0.14 0.13 0.13 0.15 0.17 0.20 0.23 0.28 0.34 0.38 0.36 0.42 0.43 0.36
0.18 0.11 0.13 0.13 0.14 0.14 0.11 0.13 0.14 0.14 0.12 0.11 0.10 0.10 0.10 0.09 0.10 0.10 0.10 0.10 0.13 0.15 0.16 0.18 0.21 0.23 0.21 0.15 0.12 0.11 0.12 0.15 0.24 0.36 0.45 0.47 0.48 0.50 0.57 0.59 0.64 0.66 0.41
0.22 0.17 0.14 0.14 0.14 0.14 0.12 0.13 0.14 0.14 0.13 0.12 0.11 0.10 0.10 0.09 0.10 0.10 0.10 0.11 0.15 0.17 0.16 0.15 0.15 0.14 0.13 0.11 0.11 0.13 0.17 0.24 0.43 0.66 0.99 1.22 0.98 0.82 0.76 0.72 0.64 0.51 0.44
0.26 0.24 0.18 0.17 0.15 0.13 0.13 0.13 0.15 0.15 0.14 0.12 0.11 0.10 0.10 0.10 0.11 0.12 0.13 0.14 0.19 0.22 0.20 0.16 0.13 0.11 0.11 0.11 0.12 0.16 0.23 0.33 0.58 0.91 1.60 1.65 1.57 1.42 0.93 0.71 0.59 0.54 0.59
0.27 0.26 0.26 0.20 0.17 0.15 0.15 0.17 0.19 0.19 0.16 0.14 0.14 0.14 0.14 0.13 0.13 0.15 0.19 0.22 0.23 0.24 0.25 0.23 0.18 0.16 0.14 0.12 0.13 0.19 0.26 0.40 0.75 1.13 1.64 2.05 2.32 1.85 1.23 0.90 0.71 0.66 0.72
0.28 0.27 0.24 0.23 0.21 0.22 0.22 0.21 0.22 0.21 0.19 0.19 0.18 0.18 0.17 0.17 0.18 0.21 0.28 0.34 0.32 0.30 0.32 0.32 0.28 0.21 0.16 0.15 0.17 0.22 0.32 0.51 0.74 1.12 1.67 2.31 2.21 1.77 1.39 1.14 0.91 0.84 0.85
0.31 0.34 0.26 0.30 0.30 0.29 0.27 0.24 0.26 0.25 0.25 0.27 0.26 0.24 0.22 0.22 0.24 0.29 0.36 0.39 0.38 0.38 0.38 0.34 0.26 0.19 0.16 0.17 0.19 0.24 0.37 0.55 0.73 1.26 1.75 2.12 1.95 1.60 1.44 1.28 1.18 1.08 0.99
0.34 0.31 0.30 0.32 0.34 0.33 0.32 0.32 0.31 0.32 0.31 0.31 0.30 0.29 0.26 0.26 0.29 0.34 0.39 0.41 0.41 0.38 0.34 0.30 0.25 0.22 0.21 0.22 0.24 0.30 0.40 0.47 0.57 1.09 1.56 1.73 1.47 1.43 1.50 1.36 1.27 1.17 1.07
0.43 0.44 0.46 0.48 0.47 0.48 0.49 0.45 0.42 0.40 0.38 0.35 0.32 0.29 0.26 0.27 0.32 0.36 0.42 0.47 0.46 0.38 0.33 0.30 0.28 0.24 0.24 0.24 0.24 0.28 0.35 0.48 0.56 0.88 1.43 1.74 1.29 1.37 1.56 1.46 1.29 1.20 1.12
0.78 0.80 0.83 0.81 0.73 0.62 0.54 0.52 0.53 0.51 0.47 0.41 0.34 0.29 0.30 0.35 0.41 0.49 0.46 0.48 0.46 0.43 0.40 0.38 0.34 0.29 0.28 0.27 0.27 0.30 0.37 0.41 0.45 0.82 1.33 1.44 1.34 1.60 1.78 1.60 1.37 1.29 1.14
1.38 1.32 1.19 1.08 0.94 0.93 0.83 0.64 0.67 0.65 0.60 0.53 0.49 0.42 0.45 0.58 0.74 0.81 0.66 0.67 0.61 0.57 0.55 0.54 0.49 0.45 0.41 0.37 0.37 0.42 0.44 0.42 0.62 0.97 1.54 1.63 1.77 1.90 2.01 1.85 1.58 1.45 1.34
1.83 1.68 1.39 1.37 1.33 1.22 1.05 0.97 0.95 0.84 0.82 0.75 0.86 0.76 0.84 1.15 1.26 1.10 1.07 0.93 0.91 0.88 0.78 0.77 0.73 0.61 0.54 0.56 0.66 0.65 0.49 0.54 0.73 1.04 1.36 1.59 1.78 2.00 2.07 1.89 1.68 1.54 1.55
1.86 1.61 1.53 1.61 1.57 1.59 1.56 1.48 1.33 1.29 1.25 1.13 1.25 1.23 1.32 1.32 1.26 1.29 1.39 1.30 1.22 1.16 1.19 1.21 1.00 0.84 0.88 0.95 0.94 0.83 0.70 0.76 0.82 1.02 1.32 1.52 1.70 2.06 2.20 1.99 1.77 1.70 1.71
2.13 1.87 1.71 1.59 1.69 1.87 1.83 1.79 1.79 1.76 1.75 1.67 1.64 1.46 1.59 1.66 1.70 1.70 1.83 1.82 1.82 1.80 1.77 1.66 1.48 1.36 1.25 1.22 1.17 1.13 1.00 0.99 1.11 1.31 1.48 1.48 1.57 1.91 2.18 2.17 1.96 1.83 1.77
2.59 2.37 2.10 2.02 1.98 2.01 2.11 2.13 1.91 2.00 2.02 2.16 2.11 1.87 1.91 1.94 2.01 2.18 2.17 2.26 2.20 2.35 2.30 2.09 1.83 1.73 1.60 1.37 1.29 1.30 1.27 1.25 1.31 1.41 1.59 1.66 1.63 1.82 2.15 2.34 2.24 2.10 2.09
2.82 2.68 2.43 2.28 2.24 2.13 2.29 2.49 2.35 2.17 2.21 2.25 2.31 2.18 2.21 2.29 2.38 2.47 2.50 2.55 2.42 2.45 2.50 2.37 2.08 1.94 1.81 1.62 1.42 1.33 1.32 1.46 1.47 1.42 1.63 1.76 1.67 1.67 1.95 2.33 2.52 2.64 2.70
3.00 2.72 2.70 2.52 2.65 2.72 2.86 2.87 2.89 2.80 2.77 2.72 2.64 2.65 2.60 2.65 2.73 2.74 2.90 2.92 2.80 2.74 2.69 2.60 2.45 2.21 2.07 1.97 1.84 1.67 1.54 1.55 1.67 1.74 1.78 1.88 1.93 1.86 1.98 2.23 2.49 2.68 2.83
2.94 2.92 2.98 2.81 2.86 3.02 2.99 2.92 3.05 3.24 3.20 3.09 3.00 3.05 2.97 3.00 3.09 3.24 3.18 3.04 2.94 2.84 2.81 2.93 2.77 2.49 2.41 2.43 2.29 1.98 1.69 1.72 1.82 1.89 1.87 1.94 2.09 2.03 2.07 2.05 2.17 2.39 2.64
2.92 2.83 2.97 3.12 2.96 3.13 3.20 3.18 3.21 3.39 3.47 3.49 3.48 3.37 3.33 3.40 3.41 3.55 3.50 3.29 3.08 2.97 2.99 2.83 2.87 2.79 2.79 2.71 2.30 2.04 1.76 1.72 1.81 1.82 1.85 1.92 2.11 2.20 2.24 2.08 2.15 2.40 2.59
2.96 2.95 3.02 3.27 3.22 3.44 3.54 3.32 3.31 3.33 3.44 3.56 3.69 3.72 3.82 3.89 3.87 3.86 3.74 3.59 3.43 3.28 3.20 3.07 3.03 3.01 2.86 2.71 2.27 2.05 1.84 1.68 1.69 1.76 1.78 1.86 1.92 1.96 2.05 2.10 2.16 2.12 2.30
3.14 3.19 3.15 3.21 3.42 3.53 3.65 3.63 3.78 3.74 3.72 3.96 4.19 4.26 4.38 4.44 4.29 4.23 4.12 4.00 3.78 3.53 3.35 3.17 3.02 2.89 2.70 2.59 2.45 2.22 1.89 1.63 1.66 1.68 1.64 1.70 1.78 1.77 1.83 1.91 2.08 2.03 1.97
3.28 3.35 3.45 3.55 3.56 3.69 4.07 4.50 4.85 5.09 5.14 5.10 5.22 5.22 5.07 4.90 4.78 4.64 4.57 4.36 4.04 3.77 3.50 3.26 3.04 2.80 2.58 2.50 2.49 2.55 2.24 1.93 1.58 1.38 1.39 1.42 1.47 1.49 1.58 1.69 1.74 1.76 1.76
3.09 3.31 3.40 3.69 4.00 4.40 4.92 5.39 5.74 6.02 6.12 5.91 5.68 5.56 5.32 5.07 4.89 4.55 4.32 4.24 3.97 3.58 3.36 3.21 3.01 2.79 2.56 2.42 2.35 2.52 2.42 2.16 1.80 1.57 1.38 1.27 1.30 1.39 1.44 1.54 1.58 1.52 1.48
2.80 3.06 3.31 3.59 4.19 5.03 5.71 6.17 6.51 6.64 6.59 6.42 6.15 5.78 5.28 4.89 4.54 4.24 3.96 3.67 3.42 3.14 2.92 2.74 2.67 2.64 2.55 2.37 2.32 2.17 1.98 1.86 1.89 1.73 1.53 1.42 1.38 1.40 1.35 1.31 1.34 1.37 1.37
2.56 2.81 3.15 3.51 4.19 4.89 5.53 6.11 6.53 6.65 6.56 6.30 5.84 5.34 4.80 4.32 3.89 3.53 3.23 2.93 2.69 2.46 2.28 2.11 2.09 2.21 2.29 2.26 2.25 2.22 2.11 1.97 1.89 1.79 1.68 1.63 1.60 1.54 1.42 1.32 1.28 1.26 1.25
2.14 2.42 2.83 3.24 3.76 4.31 4.69 5.22 5.61 5.79 5.70 5.33 4.83 4.22 3.79 3.47 3.16 2.82 2.50 2.25 2.03 1.82 1.70 1.64 1.63 1.68 1.83 1.95 2.00 2.02 2.03 2.09 2.08 2.00 1.89 1.83 1.80 1.70 1.56 1.45 1.36 1.33 1.29